This is the latest recevied weather packets stored in our database for station/object AE5EW. If no packets are shown the sender has not sent any weather packets the latest 10 day(s).
| Time | Temp. | Humidity | Pressure | Rain* | Wind** | Luminosity | Snow |
|---|---|---|---|---|---|---|---|
| 1787959874 | 27.78° C | 80% | 1016.7 hPa | 0 mm | - | - | - |
| 1787959570 | 27.78° C | 79% | 1016.6 hPa | 0 mm | - | - | - |
| 1787959270 | 27.78° C | 79% | 1016.6 hPa | 0 mm | - | - | - |
| 1787958969 | 27.78° C | 79% | 1016.7 hPa | 0 mm | - | - | - |
| 1787958665 | 27.78° C | 78% | 1016.9 hPa | 0 mm | - | - | - |
| 1787958361 | 27.78° C | 78% | 1016.8 hPa | 0 mm | - | - | - |
| 1787958056 | 28.33° C | 79% | 1016.7 hPa | 0 mm | - | - | - |
| 1787957754 | 28.33° C | 79% | 1016.6 hPa | 0 mm | - | - | - |
| 1787957450 | 27.78° C | 80% | 1016.9 hPa | 0 mm | - | - | - |
| 1787957150 | 28.33° C | 79% | 1016.8 hPa | 0 mm | - | - | - |
| 1787956849 | 28.33° C | 78% | 1017.1 hPa | 0 mm | - | - | - |
| 1787956544 | 28.33° C | 78% | 1017.1 hPa | 0 mm | - | - | - |
| 1787956239 | 28.33° C | 78% | 1017.1 hPa | 0 mm | - | - | - |
| 1787955939 | 28.89° C | 77% | 1016.8 hPa | 0 mm | - | - | - |
| 1787955635 | 28.89° C | 75% | 1017.1 hPa | 0 mm | - | - | - |
| 1787955332 | 30° C | 75% | 1017.2 hPa | 0 mm | - | - | - |
| 1787955030 | 29.44° C | 76% | 1017.1 hPa | 0 mm | - | - | - |
| 1787954726 | 29.44° C | 76% | 1017.3 hPa | 0 mm | - | - | - |
| 1787954421 | 28.89° C | 75% | 1017.1 hPa | 0 mm | - | - | - |
| 1787954116 | 29.44° C | 73% | 1017.1 hPa | 0 mm | - | - | - |
| 1787953815 | 29.44° C | 71% | 1017.2 hPa | 0 mm | - | - | - |
| 1787953515 | 29.44° C | 72% | 1017.3 hPa | 0 mm | - | - | - |
| 1787953215 | 30.56° C | 76% | 1016.9 hPa | 0 mm | - | - | - |
| 1787952912 | 30° C | 74% | 1017.2 hPa | 0 mm | - | - | - |
| 1787952607 | 29.44° C | 74% | 1017.3 hPa | 0 mm | - | - | - |
* Rain latest hour (hover to see other rain measurements)
** Current wind speed in m/s (hover to see current wind gust speed)